Overview Statistics Trail Chart Weather Telemetry Raw packets
 

This is the latest recevied weather packets stored in our database for station/object N0HOT. If no packets are shown the sender has not sent any weather packets the latest 10 day(s).

<< 5 6 7 8 9 10 11 >>
Time Temp. Humidity Pressure Rain* Wind** Luminosity Snow
1788616612 22.22° C 88% 1016 hPa 0 mm - 58 W/m² -
1788616308 22.22° C 88% 1016 hPa 0 mm - 68 W/m² -
1788616007 21.67° C 88% 1016.3 hPa 0 mm - 74 W/m² -
1788615706 21.67° C 88% 1016 hPa 0 mm - 49 W/m² -
1788615402 21.67° C 89% 1015.6 hPa 0 mm - 36 W/m² -
1788615096 21.67° C 89% 1016 hPa 0 mm - 42 W/m² -
1788614796 21.67° C 89% 1015.6 hPa 0 mm - 40 W/m² -
1788614491 21.67° C 89% 1015.6 hPa 0 mm - 36 W/m² -
1788614186 21.67° C 89% 1015.3 hPa 0 mm - 37 W/m² -
1788613881 21.67° C 89% 1015.3 hPa 0 mm - 37 W/m² -
1788613575 21.11° C 89% 1015 hPa 0 mm - 40 W/m² -
1788613275 21.11° C 89% 1015.3 hPa 0 mm - 33 W/m² -
1788612969 21.11° C 89% 1015 hPa 0 mm - 39 W/m² -
1788612665 21.11° C 89% 1015.3 hPa 0 mm - 23 W/m² -
1788612361 21.11° C 89% 1015.3 hPa 0 mm - 22 W/m² -
1788612057 21.11° C 89% 1015.3 hPa 0 mm - 14 W/m² -
1788611752 21.11° C 89% 1015.3 hPa 0 mm - 14 W/m² -
1788611449 21.11° C 89% 1015 hPa 0 mm - 15 W/m² -
1788611148 20.56° C 89% 1015 hPa 0 mm - 16 W/m² -
1788610838 20.56° C 89% 1015.3 hPa 0 mm - 14 W/m² -
1788610532 20.56° C 89% 1015.3 hPa 0 mm - 13 W/m² -
1788610227 20.56° C 89% 1015 hPa 0 mm - 12 W/m² -
1788609926 20.56° C 89% 1015.3 hPa 0 mm - 10 W/m² -
1788609622 20.56° C 89% 1015.3 hPa 0 mm - 6 W/m² -
1788609334 20.56° C 89% 1015.3 hPa 0 mm - 4 W/m² -

* Rain latest hour (hover to see other rain measurements)
** Current wind speed in m/s (hover to see current wind gust speed)